LNX65AT FTTJ-EGNH

Flight info

Callsign LNX65AT
Flight time N/A
Altitude 43000
Route KELAK UG660 FL UA607 DIR UB730 BOD UM508 TGU UJ36 BSA UB726 ZEM UB31 MOGIL N859 MJV DCT SADUR N861 OLOXO DCT MIRBA DCT TUPAR UY120 AKIKI UN867 VASUX DCT KATHY UP83 SAM Q41 NORRY UL9 CPT UN859 HON L10 WAL UN864 GUNTU
Aircraft GLF6/M-SBDE2E3FGHIJ4J5M1RWXY/LB1D1

Departure

Time N/A
Airport N'Djamena International Airport (FTTJ)

Arrival

Time 2026-04-25 05:15
Airport Blackpool Airport (EGNH)
Time Latitude Longitude Altitude Speed Heading
2026-04-25 02:33 34.16490 5.18136 43026 ft 490 kts 322°
2026-04-25 02:34 34.19279 5.15813 43031 ft 491 kts 322°
2026-04-25 02:34 34.24865 5.11155 43036 ft 491 kts 322°
2026-04-25 02:35 34.30504 5.06445 43040 ft 492 kts 322°
2026-04-25 02:35 34.36100 5.01763 43036 ft 493 kts 322°
2026-04-25 02:36 34.41779 4.97063 43035 ft 493 kts 323°
2026-04-25 02:36 34.47421 4.92422 43031 ft 493 kts 323°
2026-04-25 02:37 34.53101 4.87739 43042 ft 494 kts 323°
2026-04-25 02:37 34.58746 4.83077 43044 ft 494 kts 323°
2026-04-25 02:38 34.64431 4.78377 43055 ft 493 kts 323°
2026-04-25 02:38 34.70075 4.73700 43048 ft 493 kts 323°
2026-04-25 02:39 34.75739 4.68999 43063 ft 493 kts 323°
2026-04-25 02:39 34.81394 4.64299 43066 ft 495 kts 323°
2026-04-25 02:40 34.87051 4.59589 43058 ft 495 kts 323°
2026-04-25 02:40 34.92735 4.54848 43067 ft 496 kts 323°
2026-04-25 02:41 34.98405 4.50111 43068 ft 496 kts 323°
2026-04-25 02:41 35.04092 4.45351 43075 ft 496 kts 323°
2026-04-25 02:42 35.09763 4.40596 43069 ft 495 kts 323°
2026-04-25 02:42 35.15438 4.35831 43073 ft 495 kts 323°
2026-04-25 02:43 35.21102 4.31065 43075 ft 496 kts 323°
2026-04-25 02:43 35.26777 4.26283 43060 ft 496 kts 323°
2026-04-25 02:44 35.32498 4.21492 43061 ft 498 kts 327°
2026-04-25 02:44 35.35645 4.19795 43102 ft 500 kts 338°
2026-04-25 02:44 35.38949 4.18372 43048 ft 503 kts 338°
2026-04-25 02:45 35.45545 4.15523 43063 ft 504 kts 338°
2026-04-25 02:45 35.52020 4.12721 43066 ft 505 kts 338°
2026-04-25 02:46 35.58627 4.09858 43069 ft 505 kts 338°
2026-04-25 02:46 35.65219 4.06996 43071 ft 506 kts 338°
2026-04-25 02:47 35.71865 4.04138 43069 ft 506 kts 338°
2026-04-25 02:47 35.78526 4.01277 43069 ft 506 kts 338°
2026-04-25 02:48 35.85154 3.98427 43078 ft 507 kts 338°
2026-04-25 02:48 35.91806 3.95559 43090 ft 507 kts 338°
2026-04-25 02:49 35.98440 3.92696 43089 ft 507 kts 338°
2026-04-25 02:49 36.05076 3.89826 43072 ft 507 kts 338°
2026-04-25 02:50 36.11757 3.86932 43072 ft 507 kts 338°
2026-04-25 02:50 36.18425 3.84037 43068 ft 507 kts 338°
2026-04-25 02:51 36.25056 3.81153 43066 ft 505 kts 339°
2026-04-25 02:51 36.31672 3.78272 43062 ft 505 kts 339°
2026-04-25 02:52 36.38325 3.75361 43051 ft 506 kts 339°
2026-04-25 02:52 36.44906 3.72454 43041 ft 506 kts 339°
2026-04-25 02:53 36.51507 3.69534 43035 ft 506 kts 339°
2026-04-25 02:53 36.58168 3.66581 43031 ft 506 kts 339°
2026-04-25 02:54 36.64754 3.63657 43027 ft 505 kts 339°
2026-04-25 02:54 36.71370 3.60712 43017 ft 505 kts 339°
2026-04-25 02:55 36.77975 3.57769 43007 ft 505 kts 339°
2026-04-25 02:55 36.84808 3.55642 43009 ft 508 kts 346°
2026-04-25 02:56 36.90733 3.54038 43009 ft 509 kts 346°
2026-04-25 02:56 36.97641 3.52160 43001 ft 509 kts 346°
2026-04-25 02:57 37.04535 3.50282 43002 ft 509 kts 346°
2026-04-25 02:57 37.11474 3.48386 43010 ft 509 kts 346°
2026-04-25 02:58 37.17341 3.46782 43012 ft 508 kts 347°
2026-04-25 02:58 37.24200 3.44903 43013 ft 508 kts 347°
2026-04-25 02:59 37.31119 3.43003 43017 ft 508 kts 347°
2026-04-25 02:59 37.37981 3.41116 43022 ft 507 kts 347°
2026-04-25 03:00 37.44894 3.39213 43021 ft 507 kts 347°
2026-04-25 03:00 37.51777 3.37311 43026 ft 508 kts 347°
2026-04-25 03:01 37.58664 3.35407 43025 ft 508 kts 347°
2026-04-25 03:01 37.64869 3.33689 43034 ft 508 kts 346°
2026-04-25 03:02 37.71751 3.31778 43031 ft 508 kts 347°
2026-04-25 03:02 37.78637 3.29863 43038 ft 508 kts 346°
2026-04-25 03:03 37.85540 3.27941 43054 ft 509 kts 347°
2026-04-25 03:03 37.92490 3.26000 43061 ft 510 kts 347°
2026-04-25 03:04 37.99372 3.24076 43062 ft 510 kts 347°
2026-04-25 03:04 38.06322 3.22128 43072 ft 510 kts 347°
2026-04-25 03:05 38.16676 3.19043 43073 ft 510 kts 344°
2026-04-25 03:05 38.23509 3.16746 43072 ft 509 kts 344°
2026-04-25 03:06 38.30332 3.14457 43071 ft 509 kts 344°
2026-04-25 03:06 38.37198 3.12151 43066 ft 508 kts 344°
2026-04-25 03:07 38.43994 3.09864 43058 ft 509 kts 345°
2026-04-25 03:07 38.50820 3.07564 43064 ft 508 kts 345°
2026-04-25 03:08 38.57639 3.05262 43064 ft 507 kts 345°
2026-04-25 03:08 38.64478 3.02948 43064 ft 507 kts 345°
2026-04-25 03:09 38.71249 3.00652 43063 ft 507 kts 345°
2026-04-25 03:09 38.78099 2.98326 43064 ft 508 kts 345°
2026-04-25 03:10 38.84911 2.96007 43065 ft 509 kts 345°
2026-04-25 03:10 38.91721 2.93684 43070 ft 508 kts 345°
2026-04-25 03:11 38.98515 2.91351 43074 ft 508 kts 345°
2026-04-25 03:11 39.05295 2.89020 43077 ft 507 kts 345°
2026-04-25 03:12 39.12115 2.86679 43084 ft 507 kts 345°
2026-04-25 03:12 39.18923 2.84337 43077 ft 507 kts 345°
2026-04-25 03:13 39.25705 2.81999 43083 ft 508 kts 345°
2026-04-25 03:13 39.32536 2.79639 43088 ft 507 kts 345°
2026-04-25 03:14 39.39300 2.77298 43091 ft 505 kts 345°
2026-04-25 03:14 39.45998 2.74544 43103 ft 504 kts 337°
2026-04-25 03:15 39.52476 2.71085 43098 ft 505 kts 338°
2026-04-25 03:15 39.58992 2.67617 43093 ft 506 kts 338°
2026-04-25 03:16 39.65470 2.64163 43098 ft 506 kts 338°
2026-04-25 03:16 39.71938 2.60708 43090 ft 505 kts 338°
2026-04-25 03:17 39.78429 2.57234 43101 ft 504 kts 337°
2026-04-25 03:17 39.84906 2.53759 43092 ft 503 kts 338°
2026-04-25 03:18 39.91366 2.50287 43087 ft 503 kts 338°
2026-04-25 03:18 39.97798 2.46823 43088 ft 504 kts 338°
2026-04-25 03:19 40.04271 2.43330 43091 ft 504 kts 338°
2026-04-25 03:19 40.10733 2.39836 43091 ft 504 kts 337°
2026-04-25 03:20 40.17224 2.36318 43092 ft 504 kts 337°
2026-04-25 03:20 40.23687 2.32808 43093 ft 504 kts 337°
2026-04-25 03:21 40.30131 2.29301 43090 ft 503 kts 337°
2026-04-25 03:21 40.36603 2.25772 43086 ft 504 kts 337°
2026-04-25 03:22 40.43039 2.22256 43090 ft 505 kts 337°
2026-04-25 03:22 40.49538 2.18698 43090 ft 505 kts 336°
2026-04-25 03:23 40.56010 2.15145 43088 ft 506 kts 336°
2026-04-25 03:23 40.62474 2.11590 43087 ft 507 kts 336°
2026-04-25 03:24 40.69007 2.07990 43091 ft 508 kts 337°
2026-04-25 03:24 40.75492 2.04410 43092 ft 506 kts 337°
2026-04-25 03:25 40.81949 2.00837 43086 ft 505 kts 337°
2026-04-25 03:25 40.88440 1.97238 43089 ft 505 kts 337°
2026-04-25 03:26 40.94889 1.93653 43089 ft 506 kts 337°
2026-04-25 03:26 41.01368 1.90045 43091 ft 507 kts 336°
2026-04-25 03:27 41.07858 1.86423 43093 ft 507 kts 336°
2026-04-25 03:27 41.14340 1.82797 43093 ft 506 kts 336°
2026-04-25 03:28 41.20789 1.79183 43098 ft 506 kts 337°
2026-04-25 03:28 41.27262 1.75547 43098 ft 506 kts 336°
2026-04-25 03:29 41.33749 1.71895 43100 ft 506 kts 336°
2026-04-25 03:29 41.40218 1.68252 43093 ft 506 kts 338°
2026-04-25 03:30 41.43619 1.67111 43111 ft 505 kts 352°
2026-04-25 03:30 41.47120 1.66553 43094 ft 508 kts 353°
2026-04-25 03:30 41.54075 1.65464 43099 ft 508 kts 353°
2026-04-25 03:31 41.61090 1.64363 43102 ft 507 kts 353°
2026-04-25 03:31 41.67934 1.63288 43102 ft 506 kts 353°
2026-04-25 03:32 41.74894 1.62190 43105 ft 506 kts 353°
2026-04-25 03:32 41.81866 1.61092 43107 ft 506 kts 353°
2026-04-25 03:33 41.88825 1.59994 43106 ft 507 kts 353°
2026-04-25 03:33 41.95827 1.58886 43110 ft 507 kts 353°
2026-04-25 03:34 42.02835 1.57775 43114 ft 507 kts 353°
2026-04-25 03:34 42.09811 1.56667 43126 ft 507 kts 353°
2026-04-25 03:35 42.16817 1.55552 43139 ft 506 kts 353°
2026-04-25 03:35 42.23801 1.54438 43146 ft 507 kts 353°
2026-04-25 03:36 42.30765 1.53324 43158 ft 507 kts 353°
2026-04-25 03:36 42.37806 1.52195 43154 ft 507 kts 353°
2026-04-25 03:37 42.44759 1.50638 43145 ft 505 kts 341°
2026-04-25 03:37 42.51326 1.47392 43153 ft 506 kts 339°
2026-04-25 03:38 42.57924 1.44096 43157 ft 506 kts 340°
2026-04-25 03:38 42.64519 1.40795 43163 ft 506 kts 339°
2026-04-25 03:39 42.71115 1.37485 43170 ft 506 kts 339°
2026-04-25 03:39 42.77736 1.34155 43178 ft 506 kts 339°
2026-04-25 03:40 42.84317 1.30838 43158 ft 507 kts 339°
2026-04-25 03:40 42.90908 1.27509 43153 ft 506 kts 339°
2026-04-25 03:41 42.97484 1.24179 43141 ft 506 kts 339°
2026-04-25 03:41 43.04073 1.20835 43135 ft 507 kts 339°
2026-04-25 03:42 43.10684 1.17471 43132 ft 508 kts 339°
2026-04-25 03:42 43.17322 1.14087 43134 ft 508 kts 339°
2026-04-25 03:43 43.23913 1.10719 43131 ft 507 kts 339°
2026-04-25 03:43 43.30491 1.07350 43129 ft 507 kts 338°
2026-04-25 03:44 43.37077 1.03968 43129 ft 508 kts 339°
2026-04-25 03:44 43.43682 1.00569 43125 ft 508 kts 339°
2026-04-25 03:45 43.50309 0.97151 43123 ft 508 kts 339°
2026-04-25 03:45 43.56907 0.93739 43121 ft 508 kts 339°
2026-04-25 03:46 43.63507 0.90319 43121 ft 508 kts 339°
2026-04-25 03:46 43.70077 0.86906 43123 ft 508 kts 338°
2026-04-25 03:47 43.76687 0.83464 43115 ft 507 kts 338°
2026-04-25 03:47 43.83287 0.80020 43115 ft 508 kts 338°
2026-04-25 03:48 43.89869 0.76577 43110 ft 509 kts 338°
2026-04-25 03:48 43.96499 0.73099 43107 ft 509 kts 338°
2026-04-25 03:49 44.03087 0.69636 43110 ft 509 kts 338°
2026-04-25 03:49 44.09666 0.66170 43109 ft 508 kts 338°
2026-04-25 03:50 44.16282 0.62675 43116 ft 508 kts 339°
2026-04-25 03:50 44.22851 0.59198 43113 ft 508 kts 338°
2026-04-25 03:51 44.29448 0.55697 43111 ft 509 kts 338°
2026-04-25 03:51 44.36067 0.52176 43109 ft 509 kts 338°
2026-04-25 03:52 44.42647 0.48667 43108 ft 509 kts 338°
2026-04-25 03:52 44.49270 0.45126 43107 ft 510 kts 338°
2026-04-25 03:53 44.55859 0.41596 43107 ft 509 kts 338°
2026-04-25 03:53 44.62473 0.38043 43106 ft 509 kts 338°
2026-04-25 03:54 44.69062 0.34495 43109 ft 509 kts 338°
2026-04-25 03:54 44.75629 0.30881 43107 ft 509 kts 336°
2026-04-25 03:55 44.82196 0.27181 43099 ft 509 kts 336°
2026-04-25 03:55 44.88733 0.23492 43097 ft 508 kts 336°
2026-04-25 03:56 44.95287 0.19782 43093 ft 508 kts 336°
2026-04-25 03:56 45.01808 0.16084 43089 ft 508 kts 336°
2026-04-25 03:57 45.08375 0.12349 43090 ft 509 kts 336°
2026-04-25 03:57 45.14895 0.08632 43085 ft 509 kts 336°
2026-04-25 03:58 45.21473 0.04873 43087 ft 509 kts 336°
2026-04-25 03:58 45.27983 0.01143 43095 ft 508 kts 336°
2026-04-25 03:59 45.34555 -0.02631 43102 ft 508 kts 336°
2026-04-25 03:59 45.41059 -0.06376 43098 ft 508 kts 336°
2026-04-25 04:00 45.47588 -0.10145 43095 ft 508 kts 336°
2026-04-25 04:00 45.54126 -0.13928 43097 ft 509 kts 336°
2026-04-25 04:01 45.60672 -0.17725 43097 ft 509 kts 336°
2026-04-25 04:01 45.67195 -0.21519 43100 ft 509 kts 336°
2026-04-25 04:02 45.73729 -0.25329 43097 ft 509 kts 336°
2026-04-25 04:02 45.80297 -0.29168 43092 ft 508 kts 336°
2026-04-25 04:03 45.86814 -0.32987 43089 ft 508 kts 336°
2026-04-25 04:03 45.93323 -0.36811 43086 ft 508 kts 336°
2026-04-25 04:04 45.99853 -0.40658 43085 ft 509 kts 336°
2026-04-25 04:04 46.06406 -0.44528 43089 ft 510 kts 336°
2026-04-25 04:05 46.12937 -0.48395 43085 ft 509 kts 336°
2026-04-25 04:05 46.19447 -0.52258 43084 ft 509 kts 336°
2026-04-25 04:06 46.26015 -0.56167 43085 ft 509 kts 336°
2026-04-25 04:06 46.32535 -0.60057 43084 ft 509 kts 336°
2026-04-25 04:07 46.39040 -0.63949 43087 ft 509 kts 336°
2026-04-25 04:07 46.45476 -0.68086 43093 ft 508 kts 331°
2026-04-25 04:08 46.51778 -0.72731 43089 ft 509 kts 331°
2026-04-25 04:08 46.58063 -0.77333 43088 ft 509 kts 331°
2026-04-25 04:09 46.64356 -0.81950 43086 ft 508 kts 331°
2026-04-25 04:09 46.70459 -0.86438 43086 ft 509 kts 331°
2026-04-25 04:10 46.76746 -0.91075 43088 ft 509 kts 331°
2026-04-25 04:10 46.83057 -0.95742 43085 ft 509 kts 331°
2026-04-25 04:11 46.92518 -1.02725 43078 ft 510 kts 334°
2026-04-25 04:11 46.95918 -1.04091 43102 ft 512 kts 351°
2026-04-25 04:12 46.99465 -1.04619 43091 ft 515 kts 353°
2026-04-25 04:12 47.06573 -1.05586 43088 ft 515 kts 353°
2026-04-25 04:13 47.13704 -1.06557 43092 ft 514 kts 353°
2026-04-25 04:13 47.20819 -1.07527 43095 ft 514 kts 353°
2026-04-25 04:14 47.27898 -1.08494 43095 ft 515 kts 353°
2026-04-25 04:14 47.35005 -1.09469 43098 ft 514 kts 353°
2026-04-25 04:15 47.42110 -1.10445 43102 ft 514 kts 353°
2026-04-25 04:15 47.49243 -1.11428 43104 ft 514 kts 353°
2026-04-25 04:16 47.56306 -1.12405 43108 ft 513 kts 353°
2026-04-25 04:16 47.63393 -1.13389 43110 ft 513 kts 353°
2026-04-25 04:17 47.70452 -1.14371 43110 ft 513 kts 353°
2026-04-25 04:17 47.77574 -1.15364 43123 ft 512 kts 353°
2026-04-25 04:18 47.84616 -1.16350 43117 ft 513 kts 353°
2026-04-25 04:18 47.91680 -1.17341 43116 ft 512 kts 353°
2026-04-25 04:19 47.98761 -1.18337 43128 ft 513 kts 353°
2026-04-25 04:19 48.05849 -1.19337 43127 ft 513 kts 353°
2026-04-25 04:20 48.12936 -1.20340 43124 ft 512 kts 353°
2026-04-25 04:20 48.19996 -1.21341 43130 ft 512 kts 353°
2026-04-25 04:21 48.27087 -1.22350 43128 ft 512 kts 353°
2026-04-25 04:21 48.34135 -1.23355 43120 ft 512 kts 353°
2026-04-25 04:22 48.41217 -1.24368 43112 ft 512 kts 353°
2026-04-25 04:22 48.48257 -1.25378 43114 ft 512 kts 353°
2026-04-25 04:23 48.55367 -1.26401 43117 ft 513 kts 353°
2026-04-25 04:23 48.62396 -1.27415 43121 ft 513 kts 353°
2026-04-25 04:24 48.69539 -1.28157 43123 ft 513 kts 354°
2026-04-25 04:24 48.76630 -1.28846 43123 ft 513 kts 354°
2026-04-25 04:25 48.83732 -1.29535 43125 ft 513 kts 354°
2026-04-25 04:25 48.90823 -1.30225 43127 ft 512 kts 354°
2026-04-25 04:26 48.97895 -1.30916 43125 ft 512 kts 354°
2026-04-25 04:26 49.04969 -1.31607 43126 ft 513 kts 354°
2026-04-25 04:27 49.12067 -1.32304 43129 ft 512 kts 354°
2026-04-25 04:27 49.19166 -1.33002 43130 ft 512 kts 355°
2026-04-25 04:28 49.26271 -1.33704 43135 ft 512 kts 354°
2026-04-25 04:28 49.33327 -1.34402 43135 ft 512 kts 355°
2026-04-25 04:29 49.40425 -1.35107 43136 ft 512 kts 355°
2026-04-25 04:29 49.47514 -1.35813 43138 ft 512 kts 354°
2026-04-25 04:30 49.54583 -1.36519 43143 ft 512 kts 354°
2026-04-25 04:30 49.61671 -1.37229 43142 ft 512 kts 354°
2026-04-25 04:31 49.68761 -1.37940 43143 ft 512 kts 354°
2026-04-25 04:31 49.75843 -1.38654 43144 ft 512 kts 355°
2026-04-25 04:32 49.82944 -1.39372 43148 ft 512 kts 354°
2026-04-25 04:32 49.90026 -1.40089 43145 ft 511 kts 354°
2026-04-25 04:33 49.97072 -1.40805 43145 ft 511 kts 354°
2026-04-25 04:33 50.04165 -1.41528 43155 ft 511 kts 354°
2026-04-25 04:34 50.11245 -1.42251 43150 ft 511 kts 354°
2026-04-25 04:34 50.18312 -1.42976 43160 ft 511 kts 354°
2026-04-25 04:35 50.25412 -1.43706 43160 ft 511 kts 354°
2026-04-25 04:35 50.32490 -1.44436 43164 ft 511 kts 354°
2026-04-25 04:36 50.39559 -1.45167 43166 ft 511 kts 354°
2026-04-25 04:36 50.46609 -1.45899 43171 ft 510 kts 354°
2026-04-25 04:37 50.53670 -1.46634 43172 ft 510 kts 354°
2026-04-25 04:37 50.60740 -1.47372 43175 ft 510 kts 354°
2026-04-25 04:38 50.67760 -1.48106 43178 ft 510 kts 354°
2026-04-25 04:38 50.74831 -1.48849 43178 ft 510 kts 354°
2026-04-25 04:39 50.81905 -1.49594 43186 ft 510 kts 354°
2026-04-25 04:39 50.88951 -1.50338 43190 ft 510 kts 354°
2026-04-25 04:40 50.95993 -1.51085 43189 ft 510 kts 354°
2026-04-25 04:40 51.03045 -1.51834 43188 ft 510 kts 354°
2026-04-25 04:41 51.10091 -1.52585 43182 ft 509 kts 354°
2026-04-25 04:41 51.17142 -1.53340 43179 ft 509 kts 354°
2026-04-25 04:42 51.24182 -1.54095 43173 ft 509 kts 354°
2026-04-25 04:42 51.31249 -1.54855 43174 ft 509 kts 354°
2026-04-25 04:43 51.38273 -1.55614 43171 ft 509 kts 354°
2026-04-25 04:43 51.43838 -1.56216 43175 ft 509 kts 354°
2026-04-25 04:44 51.44629 -1.56301 43175 ft 509 kts 354°
2026-04-25 04:44 51.48141 -1.56682 43155 ft 498 kts 354°
2026-04-25 04:44 51.51543 -1.57051 43136 ft 491 kts 354°
2026-04-25 04:45 51.58303 -1.57787 43108 ft 488 kts 354°
2026-04-25 04:45 51.65077 -1.58528 43065 ft 492 kts 355°
2026-04-25 04:45 51.68482 -1.58901 42745 ft 498 kts 354°
2026-04-25 04:46 51.71924 -1.59277 42261 ft 498 kts 354°
2026-04-25 04:46 51.75388 -1.59658 41727 ft 495 kts 354°
2026-04-25 04:46 51.78776 -1.60030 41193 ft 491 kts 354°
2026-04-25 04:46 51.82151 -1.60402 40648 ft 489 kts 354°
2026-04-25 04:47 51.85553 -1.60778 40039 ft 489 kts 354°
2026-04-25 04:47 51.88919 -1.61149 39478 ft 490 kts 354°
2026-04-25 04:47 51.92336 -1.61527 38926 ft 492 kts 354°
2026-04-25 04:47 51.95729 -1.61904 38384 ft 494 kts 354°
2026-04-25 04:48 51.99126 -1.62280 37840 ft 495 kts 354°
2026-04-25 04:48 52.02555 -1.62662 37290 ft 496 kts 354°
2026-04-25 04:48 52.06010 -1.63046 36733 ft 497 kts 354°
2026-04-25 04:48 52.09451 -1.63429 36181 ft 498 kts 354°
2026-04-25 04:49 52.12872 -1.63811 35632 ft 501 kts 354°
2026-04-25 04:49 52.16345 -1.64200 35076 ft 503 kts 354°
2026-04-25 04:49 52.19841 -1.64592 34519 ft 504 kts 354°
2026-04-25 04:49 52.23319 -1.64982 33964 ft 505 kts 354°
2026-04-25 04:50 52.26801 -1.65372 33408 ft 506 kts 354°
2026-04-25 04:50 52.30298 -1.65766 32855 ft 507 kts 354°
2026-04-25 04:50 52.33805 -1.66434 32257 ft 504 kts 344°
2026-04-25 04:50 52.37002 -1.68648 31716 ft 500 kts 326°
2026-04-25 04:51 52.39748 -1.72053 31168 ft 499 kts 318°
2026-04-25 04:51 52.42390 -1.75647 30602 ft 490 kts 318°
2026-04-25 04:51 52.44941 -1.79157 30072 ft 481 kts 317°
2026-04-25 04:51 52.47494 -1.82688 29541 ft 478 kts 317°
2026-04-25 04:52 52.50022 -1.86190 29016 ft 475 kts 317°
2026-04-25 04:52 52.52498 -1.89629 28498 ft 472 kts 317°
2026-04-25 04:52 52.55013 -1.93126 27974 ft 468 kts 317°
2026-04-25 04:52 52.57449 -1.96518 27466 ft 465 kts 317°
2026-04-25 04:53 52.59894 -1.99930 26957 ft 461 kts 317°
2026-04-25 04:53 52.62316 -2.03313 26450 ft 457 kts 317°
2026-04-25 04:53 52.64725 -2.06683 25948 ft 454 kts 317°
2026-04-25 04:53 52.67137 -2.10062 25445 ft 451 kts 317°
2026-04-25 04:54 52.69489 -2.13364 24960 ft 448 kts 317°
2026-04-25 04:54 52.71833 -2.16657 24485 ft 445 kts 317°
2026-04-25 04:54 52.74174 -2.19952 24000 ft 441 kts 317°
2026-04-25 04:54 52.76487 -2.23213 23518 ft 438 kts 317°
2026-04-25 04:55 52.78791 -2.26464 23049 ft 436 kts 318°
2026-04-25 04:55 52.81090 -2.29715 22571 ft 435 kts 318°
2026-04-25 04:55 52.83350 -2.32914 22106 ft 433 kts 318°
2026-04-25 04:55 52.85624 -2.36138 21627 ft 431 kts 318°
2026-04-25 04:56 52.87888 -2.39352 21153 ft 430 kts 318°
2026-04-25 04:56 52.90153 -2.42571 20668 ft 428 kts 318°
2026-04-25 04:56 52.92410 -2.45785 20200 ft 427 kts 319°
2026-04-25 04:56 52.94633 -2.48953 19735 ft 425 kts 319°
2026-04-25 04:57 52.96861 -2.52134 19262 ft 423 kts 319°
2026-04-25 04:57 52.99079 -2.55305 18800 ft 421 kts 319°
2026-04-25 04:57 53.01274 -2.58446 18333 ft 419 kts 319°
2026-04-25 04:57 53.03459 -2.61579 17868 ft 415 kts 319°
2026-04-25 04:58 53.05649 -2.64725 17413 ft 411 kts 319°
2026-04-25 04:58 53.07789 -2.67801 16963 ft 408 kts 318°
2026-04-25 04:58 53.09922 -2.70871 16510 ft 406 kts 319°
2026-04-25 04:58 53.12033 -2.73916 16066 ft 403 kts 319°
2026-04-25 04:59 53.14125 -2.76934 15630 ft 401 kts 319°
2026-04-25 04:59 53.16219 -2.79962 15193 ft 398 kts 319°
2026-04-25 04:59 53.18303 -2.82978 14754 ft 396 kts 319°
2026-04-25 04:59 53.20357 -2.85955 14318 ft 393 kts 319°
2026-04-25 05:00 53.22423 -2.88951 13883 ft 391 kts 319°
2026-04-25 05:00 53.24441 -2.91884 13454 ft 389 kts 319°
2026-04-25 05:00 53.26477 -2.94845 13017 ft 387 kts 319°
2026-04-25 05:00 53.28481 -2.97765 12583 ft 384 kts 319°
2026-04-25 05:01 53.30494 -3.00703 12169 ft 381 kts 319°
2026-04-25 05:01 53.32475 -3.03597 11724 ft 378 kts 319°
2026-04-25 05:01 53.34429 -3.06455 11323 ft 375 kts 319°
2026-04-25 05:01 53.36385 -3.09320 10900 ft 367 kts 319°
2026-04-25 05:02 53.38270 -3.11999 10516 ft 352 kts 325°
2026-04-25 05:02 53.40465 -3.13493 10096 ft 337 kts 350°
2026-04-25 05:02 53.42733 -3.13939 9745 ft 325 kts 355°
2026-04-25 05:02 53.44962 -3.14296 9382 ft 315 kts 355°
2026-04-25 05:03 53.47105 -3.14627 9052 ft 306 kts 355°
2026-04-25 05:03 53.49198 -3.14946 8720 ft 299 kts 355°
2026-04-25 05:03 53.51240 -3.15255 8373 ft 292 kts 355°
2026-04-25 05:03 53.53229 -3.15558 8061 ft 285 kts 355°
2026-04-25 05:04 53.55165 -3.15852 7760 ft 279 kts 355°
2026-04-25 05:04 53.57074 -3.16140 7464 ft 274 kts 355°
2026-04-25 05:04 53.58955 -3.15866 7148 ft 273 kts 21°
2026-04-25 05:04 53.60444 -3.13983 6822 ft 272 kts 50°
2026-04-25 05:05 53.61603 -3.11459 6511 ft 272 kts 52°
2026-04-25 05:05 53.62744 -3.08924 6206 ft 270 kts 52°
2026-04-25 05:05 53.63871 -3.06405 5901 ft 269 kts 52°
2026-04-25 05:05 53.64982 -3.03916 5601 ft 268 kts 53°
2026-04-25 05:06 53.66088 -3.01430 5364 ft 261 kts 53°
2026-04-25 05:06 53.67143 -2.99055 5061 ft 249 kts 52°
2026-04-25 05:06 53.68048 -2.96660 4710 ft 240 kts 69°
2026-04-25 05:06 53.68205 -2.93924 4385 ft 233 kts 90°
2026-04-25 05:07 53.68197 -2.91211 4057 ft 228 kts 90°
2026-04-25 05:07 53.68191 -2.88605 3735 ft 223 kts 89°
2026-04-25 05:07 53.68185 -2.86017 3406 ft 220 kts 90°
2026-04-25 05:07 53.68180 -2.83456 3174 ft 212 kts 89°
2026-04-25 05:08 53.68173 -2.81076 3158 ft 195 kts 89°
2026-04-25 05:08 53.68160 -2.78863 3162 ft 189 kts 90°
2026-04-25 05:08 53.68282 -2.76639 2964 ft 189 kts 67°
2026-04-25 05:08 53.69150 -2.75108 2753 ft 186 kts 22°
2026-04-25 05:09 53.70410 -2.74757 2565 ft 184 kts
2026-04-25 05:09 53.71701 -2.74648 2362 ft 184 kts
2026-04-25 05:09 53.72969 -2.74539 2191 ft 183 kts
2026-04-25 05:09 53.74239 -2.74431 2180 ft 183 kts
2026-04-25 05:10 53.75511 -2.74395 2166 ft 183 kts 349°
2026-04-25 05:10 53.76496 -2.75427 2190 ft 163 kts 306°
2026-04-25 05:10 53.76725 -2.77079 2154 ft 138 kts 259°
2026-04-25 05:10 53.76345 -2.78559 2176 ft 138 kts 253°
2026-04-25 05:11 53.76216 -2.80169 2158 ft 142 kts 266°
2026-04-25 05:11 53.76196 -2.81785 1935 ft 130 kts 271°
2026-04-25 05:11 53.76224 -2.83281 1953 ft 127 kts 273°
2026-04-25 05:12 53.76342 -2.86299 1838 ft 130 kts 274°
2026-04-25 05:12 53.76414 -2.87838 1671 ft 130 kts 274°
2026-04-25 05:12 53.76488 -2.89349 1502 ft 129 kts 274°
2026-04-25 05:12 53.76563 -2.90852 1327 ft 129 kts 274°
2026-04-25 05:13 53.76638 -2.92349 1152 ft 129 kts 274°
2026-04-25 05:13 53.76713 -2.93870 973 ft 129 kts 274°
2026-04-25 05:13 53.76788 -2.95377 794 ft 131 kts 274°
2026-04-25 05:13 53.76864 -2.96920 612 ft 131 kts 274°
2026-04-25 05:14 53.76939 -2.98448 433 ft 131 kts 274°
2026-04-25 05:14 53.77015 -2.99987 254 ft 132 kts 275°
2026-04-25 05:14 53.77089 -3.01529 73 ft 130 kts 275°
2026-04-25 05:15 53.77183 -3.03442 43 ft 24 kts 275°
2026-04-25 05:15 53.77193 -3.03598 43 ft 7 kts 284°
2026-04-25 05:15 53.77297 -3.03599 43 ft 20 kts 11°
2026-04-25 05:15 53.77436 -3.03571 43 ft 19 kts
2026-04-25 05:16 53.77570 -3.03544 43 ft 19 kts 360°
2026-04-25 05:16 53.77696 -3.03599 43 ft 18 kts 343°
2026-04-25 05:16 53.77744 -3.03689 43 ft 0 kts 252°